FLOCK 4V-18

Last updated on Fri Nov 06 2020 00:02:03 GMT+0000 (Coordinated Universal Time)

1 46597U 20061BG 20310.68078612 .00000656 00000-0 38727-4 0 9992 2 46597 97.4688 22.6469 0008185 24.7983 335.3641 15.14888089 4583
UTC large
Height (km)
Speed (km/s)
/
Latitude / Longitude
Inclination (degrees)
Orbital Period (minutes)
Azimuth
Elevation
Range (km)
Doppler Factor

Next 0 passes for location: London (51.5072 / 0.1276)

Sorry there are no passes over London.